Regional Weather Roundup
Issued by NWS

Home | Current Version | Previous Version | Graphics & Text | Print | Product List | Glossary On
Versions: 1 2 3 4 5 6 7 8 9 10 11 12 13 14 15 16 17 18 19 20 21 22 23 24 25 26 27 28 29 30 31 32 33 34 35 36 37 38 39 40 41 42 43 44 45 46 47 48 49 50
000
ASUS43 KOAX 011202
RWRNE

WEATHER ROUNDUP FOR NEBRASKA
NATIONAL WEATHER SERVICE OMAHA NE
700 AM CDT FRI AUG 01 2014

NOTES: SATELLITE DATA IS BEING USED TO AUGMENT CLOUD COVER ABOVE
       12000 FEET.
       "FAIR" INDICATES FEW OR NO CLOUDS BELOW 12,000 FEET WITH NO
       SIGNIFICANT WEATHER AND/OR OBSTRUCTIONS TO VISIBILITY.

  * THESE STATIONS DO NOT REPORT WEATHER SUCH AS RAIN...SNOW OR FOG.

NEZ001>004-019>022-054>056-011300-
NEBRASKA PANHANDLE

CITY           SKY/WX    TMP DP  RH WIND       PRES   REMARKS
SCOTTSBLUFF    CLEAR     52  49  89 NW5       30.19R
6HR MIN TEMP:  51; 6HR MAX TEMP:  63;

ALLIANCE       CLEAR     47  44  90 W7        30.18R
6HR MIN TEMP:  47; 6HR MAX TEMP:  63;

CHADRON        CLEAR     53  45  74 CALM      30.14R
6HR MIN TEMP:  52; 6HR MAX TEMP:  61;

KIMBALL        CLEAR     53  49  87 W5        30.22R
SIDNEY         CLEAR     50  45  83 NW7       30.20R
6HR MIN TEMP:  49; 6HR MAX TEMP:  62;

$$

NEZ057>060-069>072-079>082-011300-
SOUTHWEST NEBRASKA

CITY           SKY/WX    TMP DP  RH WIND       PRES   REMARKS
NORTH PLATTE   CLEAR     52  50  93 CALM      30.14R
6HR MIN TEMP:  50; 6HR MAX TEMP:  62;

IMPERIAL       CLEAR     58  54  86 CALM      30.15R
6HR MIN TEMP:  58; 6HR MAX TEMP:  65;

MCCOOK         CLEAR     57  54  89 E3        30.12R
6HR MIN TEMP:  55; 6HR MAX TEMP:  66;

$$

NEZ005>010-023>029-035>040-094-011300-
NORTH CENTRAL NEBRASKA

CITY           SKY/WX    TMP DP  RH WIND       PRES   REMARKS
VALENTINE      CLEAR     55  55 100 CALM      30.11R FOG
6HR MIN TEMP:  53; 6HR MAX TEMP:  68;

AINSWORTH      FOG       56  56 100 CALM      30.12R VSB 3/4
BROKEN BOW     CLEAR     54  52  93 CALM      30.11R
6HR MIN TEMP:  54; 6HR MAX TEMP:  60;

ORD            FOG       53  52  96 CALM      30.09R VSB 1
6HR MIN TEMP:  55; 6HR MAX TEMP:  62;

$$

NEZ041-046>049-061>064-073>077-083>087-011300-
SOUTH CENTRAL NEBRASKA

CITY           SKY/WX    TMP DP  RH WIND       PRES   REMARKS
GRAND ISLAND   CLEAR     59  57  93 N7        30.09R FOG
6HR MIN TEMP:  58; 6HR MAX TEMP:  63;

AURORA         CLEAR     59  59 100 N6        30.07R FOG
HASTINGS       CLEAR     59  55  87 N6        30.07R
6HR MIN TEMP:  58; 6HR MAX TEMP:  66;

KEARNEY *      CLEAR     57  55  94 W8        30.10R
YORK           CLEAR     55  55 100 N7        30.06R FOG
$$

NEZ011>018-030>034-042>045-011300-
NORTHEAST NEBRASKA

CITY           SKY/WX    TMP DP  RH WIND       PRES   REMARKS
NORFOLK        CLOUDY    54  53  97 CALM      30.09R FOG
6HR MIN TEMP:  53; 6HR MAX TEMP:  63;

ALBION         CLEAR     55  53  95 CALM      30.09R FOG
BLAIR          PTCLDY    62  59  90 SE3       30.06R
COLUMBUS *     CLEAR     57  54  88 CALM      30.07R
FREMONT        CLEAR     63  61  92 CALM      30.06S
TEKAMAH        CLEAR     59  57  93 N6        30.07R FOG
6HR MIN TEMP:  58; 6HR MAX TEMP:  67;

$$

NEZ050>053-065>068-078-088>093-011300-
SOUTHEAST NEBRASKA

CITY           SKY/WX    TMP DP  RH WIND       PRES   REMARKS
LINCOLN        CLEAR     64  58  80 E3        30.05R
6HR MIN TEMP:  64; 6HR MAX TEMP:  72;

OMAHA EPPLEY   MOCLDY    66  60  81 SE3       30.06R
6HR MIN TEMP:  65; 6HR MAX TEMP:  73; 6HR PCP:  0.01;

BEATRICE       CLEAR     64  59  84 S6        30.02S
FALLS CITY     MOCLDY    64  61  90 SE5       30.06R
6HR MIN TEMP:  63; 6HR MAX TEMP:  68; 6HR PCP: TRACE;

NEBRASKA CITY  MOCLDY    65  60  83 SE10      30.05R
PLATTSMOUTH    CLOUDY    65  62  90 E6        30.05S
$$

NEZ044-045-051>053-067-011300-
OMAHA AREA

CITY           SKY/WX    TMP DP  RH WIND       PRES   REMARKS
OMAHA EPPLEY   MOCLDY    66  60  81 SE3       30.06R
6HR MIN TEMP:  65; 6HR MAX TEMP:  73; 6HR PCP:  0.01;

BLAIR          PTCLDY    62  59  90 SE3       30.06R
FREMONT        CLEAR     63  61  92 CALM      30.06S
OFFUTT AFB     MOCLDY    65  65  99 E5        30.05R
PLATTSMOUTH    CLOUDY    65  62  90 E6        30.05S
WAHOO          FAIR      61  59  91 NE3       30.06R FOG
$$



USA.gov is the U.S. government's official web portal to all federal, state and local government web resources and services.